History for Norfolk, VA on Friday, April 29, 2016

Jump to data by:

Latest visited Airport Codes: KORF

Data type:
 

« Previous Day | Next Day »

 
Daily Summary
Actual Average Record
Temperature
Mean Temperature 56 °F 62 °F  
Max Temperature 58 °F 71 °F 92 °F (1974)
Min Temperature 54 °F 53 °F 38 °F (1874)
Degree Days
Heating Degree Days 9 5  
Month to date heating degree days 233 234  
Since 1 July heating degree days 2444 3295  
Cooling Degree Days 0 2  
Month to date cooling degree days 30 38  
Year to date cooling degree days 48 45  
Growing Degree Days 6 (Base 50)    
Moisture
Dew Point 53 °F    
Average Humidity 89    
Maximum Humidity 93    
Minimum Humidity 81    
Precipitation
Precipitation 0.13 in 0.11 in 1.44 in (1986)
Month to date precipitation 2.78 3.30  
Year to date precipitation 17.11 13.50  
Snow
Snow 0.00 in 0.00 in 0.00 in (2002)
Month to date snowfall T 0.0  
Since 1 July snowfall 5.0 5.8  
Snow Depth 0.00 in    
Sea Level Pressure
Sea Level Pressure 29.97 in    
Wind
Wind Speed 8 mph ()    
Max Wind Speed 15 mph    
Max Gust Speed 18 mph    
Visibility 6.6 miles    
Events Rain   
Key: T is trace of precipitation, MM is missing value
Source: Averaged Metar Reports
Time (EDT) Temp. Dew Point Humidity Sea Level Pressure Visibility Wind Direction Wind Speed Gust Speed Precip. Events Conditions
12:42 AM 57.0 °F 54.0 °F 89% 29.95 in 10.0 miles NNW 8.1 mph - N/A   Overcast
12:49 AM 57.2 °F 53.6 °F 88% 29.95 in 10.0 miles ENE 4.6 mph - 0.00 in Rain Light Rain
12:51 AM 57.0 °F 54.0 °F 89% 29.95 in 10.0 miles NE 3.5 mph - 0.00 in Rain Light Rain
1:47 AM 57.2 °F 53.6 °F 88% 29.91 in 10.0 miles ENE 5.8 mph - 0.13 in   Overcast
1:51 AM 55.9 °F 54.0 °F 93% 29.91 in 10.0 miles ENE 6.9 mph - 0.13 in   Overcast
2:03 AM 55.9 °F 54.0 °F 93% 29.91 in 10.0 miles ENE 5.8 mph - N/A   Overcast
2:51 AM 55.9 °F 54.0 °F 93% 29.92 in 10.0 miles NNE 13.8 mph - N/A   Overcast
3:05 AM 57.0 °F 54.0 °F 89% 29.92 in 10.0 miles NE 15.0 mph - N/A   Overcast
3:51 AM 55.9 °F 53.1 °F 90% 29.94 in 10.0 miles NNE 11.5 mph - N/A   Overcast
4:46 AM 55.4 °F 51.8 °F 88% 29.94 in 5.0 miles NNE 11.5 mph - N/A   Overcast
4:51 AM 55.0 °F 52.0 °F 89% 29.94 in 5.0 miles North 11.5 mph - N/A   Overcast
5:51 AM 55.0 °F 52.0 °F 89% 29.93 in 4.0 miles NE 13.8 mph - N/A   Overcast
5:58 AM 54.0 °F 52.0 °F 93% 29.94 in 4.0 miles NE 10.4 mph - N/A   Overcast
6:36 AM 55.0 °F 52.0 °F 89% 29.96 in 3.0 miles NNE 12.7 mph - N/A   Overcast
6:40 AM 55.0 °F 52.0 °F 89% 29.96 in 2.5 miles NNE 12.7 mph - N/A   Overcast
6:51 AM 54.0 °F 52.0 °F 93% 29.97 in 2.5 miles NNE 12.7 mph - N/A   Overcast
7:08 AM 54.0 °F 52.0 °F 93% 29.98 in 5.0 miles NNE 11.5 mph - N/A   Overcast
7:20 AM 54.0 °F 52.0 °F 93% 29.98 in 2.5 miles NNE 10.4 mph - N/A   Overcast
7:51 AM 55.0 °F 52.0 °F 89% 29.99 in 2.5 miles NNE 12.7 mph - 0.00 in Rain Light Rain
8:02 AM 55.0 °F 52.0 °F 89% 30.00 in 2.5 miles NE 13.8 mph - 0.00 in   Overcast
8:51 AM 55.0 °F 52.0 °F 89% 30.00 in 2.5 miles NE 9.2 mph - 0.00 in   Overcast
8:58 AM 55.0 °F 52.0 °F 89% 30.00 in 6.0 miles NE 9.2 mph - N/A   Overcast
9:51 AM 55.0 °F 52.0 °F 89% 30.01 in 2.0 miles NNE 11.5 mph - N/A   Overcast
10:17 AM 55.9 °F 53.1 °F 90% 30.02 in 3.0 miles NNE 10.4 mph - N/A   Overcast
10:43 AM 55.0 °F 52.0 °F 89% 30.03 in 2.0 miles North 8.1 mph - N/A   Overcast
10:51 AM 55.9 °F 53.1 °F 90% 30.03 in 3.0 miles North 8.1 mph - N/A   Overcast
11:51 AM 55.9 °F 53.1 °F 90% 30.03 in 3.0 miles North 8.1 mph - N/A   Overcast
12:51 PM 57.0 °F 53.1 °F 87% 30.00 in 10.0 miles NNE 6.9 mph - N/A   Overcast
1:51 PM 57.0 °F 53.1 °F 87% 29.99 in 10.0 miles North 6.9 mph - N/A   Overcast
2:51 PM 57.0 °F 53.1 °F 87% 30.01 in 10.0 miles NNW 8.1 mph - N/A   Overcast
3:51 PM 57.0 °F 53.1 °F 87% 30.01 in 10.0 miles North 9.2 mph - N/A   Overcast
4:51 PM 57.9 °F 53.1 °F 84% 30.00 in 10.0 miles North 8.1 mph - N/A   Overcast
5:51 PM 57.9 °F 53.1 °F 84% 29.99 in 10.0 miles NNE 10.4 mph - N/A   Overcast
6:13 PM 57.9 °F 52.0 °F 81% 29.99 in 10.0 miles NNE 9.2 mph - N/A   Overcast
6:51 PM 57.9 °F 53.1 °F 84% 30.00 in 10.0 miles North 10.4 mph - N/A   Overcast

Powered by the Weather Underground, Inc.